CW7741 Weather Reports


Display with metric or nautical units.
time (UTC)temp
F
wind
direction
speed
MPH
gust
MPH
rain 1hr
in
rain 24hr
in
rain mn
in
humidity
%
barometer
mb
20200714183316 86 322 0.0 1.0 0.00 0.00 0.00 54 1017.2
20200714182318 85 322 0.0 1.0 0.00 0.00 0.00 55 1017.3
20200714181321 84 322 0.0 0.0 0.00 0.00 0.00 59 1017.3
20200714180325 84 319 0.0 4.0 0.00 0.00 0.00 55 1017.3
20200714175330 85 319 0.0 3.0 0.00 0.00 0.00 55 1017.3
20200714174331 85 319 0.0 1.0 0.00 0.00 0.00 54 1017.4
20200714173315 84 319 0.0 1.0 0.00 0.00 0.00 55 1017.3
20200714172315 84 319 0.0 6.0 0.00 0.00 0.00 56 1017.4
20200714171315 83 319 0.0 1.0 0.00 0.00 0.00 57 1017.3
20200714170315 83 319 0.0 3.0 0.00 0.00 0.00 57 1017.5
20200714165317 82 319 0.0 1.0 0.00 0.00 0.00 58 1017.5
20200714164324 82 319 0.0 0.0 0.00 0.00 0.00 58 1017.6
20200714163326 82 319 0.0 0.0 0.00 0.00 0.00 58 1017.5
20200714162325 82 319 0.0 1.0 0.00 0.00 0.00 61 1017.4
20200714161330 81 319 0.0 1.0 0.00 0.00 0.00 59 1017.4
20200714160330 80 319 0.0 2.0 0.00 0.00 0.00 61 1017.6
20200714155318 80 319 0.0 1.0 0.00 0.00 0.00 62 1017.6
20200714154321 79 319 0.0 1.0 0.00 0.00 0.00 62 1017.8
20200714153324 79 319 0.0 2.0 0.00 0.00 0.00 64 1017.9
20200714152319 78 319 0.0 1.0 0.00 0.00 0.00 66 1017.9
20200714151327 78 320 0.0 1.0 0.00 0.00 0.00 69 1017.8
20200714150325 77 320 0.0 1.0 0.00 0.00 0.00 72 1017.7
20200714145332 76 320 0.0 0.0 0.00 0.00 0.00 74 1017.8
20200714144324 75 320 0.0 1.0 0.00 0.00 0.00 78 1017.7
20200714143322 75 320 0.0 1.0 0.00 0.00 0.00 81 1017.7
20200714142317 74 320 0.0 1.0 0.00 0.00 0.00 84 1017.8
20200714141325 72 321 0.0 0.0 0.00 0.00 0.00 86 1017.8
20200714140315 72 329 0.0 1.0 0.00 0.00 0.00 87 1017.8
20200714135317 71 327 0.0 0.0 0.00 0.00 0.00 88 1017.9
20200714134321 71 327 0.0 0.0 0.00 0.00 0.00 88 1017.8
20200714133326 70 327 0.0 1.0 0.00 0.00 0.00 87 1017.8
20200714132323 69 327 0.0 0.0 0.00 0.00 0.00 86 1017.9
20200714131327 69 327 0.0 0.0 0.00 0.00 0.00 86 1017.9
20200714130328 67 327 0.0 0.0 0.00 0.00 0.00 85 1017.8
20200714125324 67 327 0.0 0.0 0.00 0.00 0.00 85 1017.7
20200714124321 66 327 0.0 0.0 0.00 0.00 0.00 85 1017.7
20200714123322 66 327 0.0 0.0 0.00 0.00 0.00 86 1017.7
20200714122325 65 326 0.0 0.0 0.00 0.00 0.00 86 1017.4
20200714121332 65 326 0.0 0.0 0.00 0.00 0.00 86 1017.3
20200714120332 64 326 0.0 0.0 0.00 0.00 0.00 86 1017.2
20200714115331 64 326 0.0 0.0 0.00 0.00 0.00 87 1017.2
20200714114319 63 325 0.0 0.0 0.00 0.00 0.00 87 1017.1
20200714113334 63 322 0.0 0.0 0.00 0.00 0.00 87 1016.9
20200714112319 62 322 0.0 0.0 0.00 0.00 0.00 87 1016.9
20200714111324 62 322 0.0 0.0 0.00 0.00 0.00 87 1016.9
20200714110322 62 308 0.0 0.0 0.00 0.00 0.00 87 1016.9
20200714105322 62 308 0.0 0.0 0.00 0.00 0.00 88 1016.8
20200714104332 62 308 0.0 0.0 0.00 0.00 0.00 88 1016.8
20200714103330 62 308 0.0 0.0 0.00 0.00 0.00 88 1016.6
20200714102320 62 308 0.0 0.0 0.00 0.00 0.00 88 1016.5
20200714101319 62 308 0.0 0.0 0.00 0.00 0.00 88 1016.4
20200714100323 62 308 0.0 0.0 0.00 0.00 0.00 88 1016.2
20200714095317 62 308 0.0 0.0 0.00 0.04 0.00 88 1016.1
20200714094321 62 308 0.0 0.0 0.00 0.04 0.00 88 1016.1
20200714093327 62 308 0.0 0.0 0.00 0.04 0.00 88 1015.8
20200714092321 62 308 0.0 0.0 0.00 0.04 0.00 88 1015.7
20200714091322 63 308 0.0 0.0 0.00 0.04 0.00 88 1015.7
20200714090321 63 308 0.0 0.0 0.00 0.04 0.00 88 1015.6
20200714085322 63 308 0.0 0.0 0.00 0.05 0.00 88 1015.6
20200714084318 63 308 0.0 0.0 0.00 0.05 0.00 88 1015.6
20200714083317 63 308 0.0 0.0 0.00 0.05 0.00 88 1015.6
20200714082331 63 308 0.0 0.0 0.00 0.05 0.00 88 1015.5
20200714081317 64 308 0.0 0.0 0.00 0.05 0.00 88 1015.4
20200714080319 64 308 0.0 0.0 0.00 0.05 0.00 88 1015.4
20200714075319 64 308 0.0 0.0 0.00 0.05 0.00 88 1015.4
20200714074318 64 308 0.0 0.0 0.00 0.05 0.00 88 1015.3
20200714073335 65 308 0.0 0.0 0.00 0.05 0.00 88 1015.3
20200714072329 65 308 0.0 0.0 0.00 0.05 0.00 88 1015.3
20200714071325 65 308 0.0 0.0 0.00 0.05 0.00 88 1015.4
20200714070328 65 308 0.0 0.0 0.00 0.05 0.00 88 1015.4
20200714065322 65 308 0.0 0.0 0.00 0.06 0.00 88 1015.3
20200714064320 65 308 0.0 0.0 0.00 0.06 0.00 88 1015.3
20200714063317 66 308 0.0 0.0 0.00 0.06 0.00 88 1015.3
20200714062325 66 308 0.0 0.0 0.00 0.06 0.00 88 1015.4
20200714061328 66 308 0.0 0.0 0.00 0.06 0.00 88 1015.3
20200714060323 66 308 0.0 0.0 0.00 0.06 0.00 88 1015.3
20200714055324 66 308 0.0 0.0 0.00 0.06 0.00 88 1015.2
20200714054329 66 308 0.0 0.0 0.00 0.06 0.00 88 1015.2
20200714053334 66 308 0.0 0.0 0.00 0.06 0.00 88 1015.2
20200714052326 66 308 0.0 0.0 0.00 0.06 0.00 88 1015.1
20200714051328 66 308 0.0 0.0 0.00 0.06 0.00 88 1015.0
20200714050335 66 308 0.0 0.0 0.00 0.06 0.00 88 1014.8
20200714045329 66 308 0.0 0.0 0.00 0.06 0.00 88 1014.7
20200714044325 67 308 0.0 0.0 0.00 0.06 0.00 88 1014.8
20200714043329 67 308 0.0 0.0 0.00 0.06 0.00 88 1014.6
20200714042316 67 308 0.0 0.0 0.00 0.06 0.00 88 1014.5
20200714041321 68 308 0.0 0.0 0.00 0.06 0.00 88 1014.5
20200714040321 68 308 0.0 0.0 0.00 0.06 0.00 88 1014.6
20200714035328 68 308 0.0 0.0 0.00 0.06 0.06 87 1014.7
20200714034330 69 308 0.0 0.0 0.00 0.06 0.06 87 1014.6
20200714033329 69 308 0.0 0.0 0.00 0.06 0.06 87 1014.6
20200714032330 69 308 0.0 0.0 0.00 0.06 0.06 87 1014.5
20200714031325 70 308 0.0 0.0 0.00 0.06 0.06 86 1014.5
20200714030324 70 308 0.0 0.0 0.00 0.06 0.06 86 1014.4
20200714025325 70 308 0.0 0.0 0.00 0.06 0.06 86 1014.3
20200714024330 70 308 0.0 0.0 0.00 0.06 0.06 85 1014.2
20200714023334 71 308 0.0 0.0 0.00 0.06 0.06 85 1014.1
20200714022335 71 308 0.0 0.0 0.00 0.06 0.06 85 1013.9
20200714021332 71 308 0.0 0.0 0.00 0.06 0.06 84 1013.9
20200714020331 71 308 0.0 0.0 0.00 0.06 0.06 84 1013.9
20200714015321 72 308 0.0 0.0 0.00 0.06 0.06 83 1013.8
20200714014322 72 308 0.0 0.0 0.00 0.06 0.06 83 1013.7
20200714013324 72 308 0.0 0.0 0.00 0.06 0.06 82 1013.4
20200714012328 72 308 0.0 0.0 0.00 0.06 0.06 82 1013.4
20200714011334 73 308 0.0 0.0 0.00 0.06 0.06 81 1013.3
20200714010323 73 308 0.0 0.0 0.00 0.06 0.06 80 1013.2
20200714005325 74 308 0.0 0.0 0.00 0.06 0.06 80 1013.2
20200714004317 74 308 0.0 0.0 0.00 0.06 0.06 79 1013.1
20200714003334 75 308 0.0 0.0 0.00 0.06 0.06 78 1012.9
20200714002320 75 308 0.0 0.0 0.00 0.06 0.06 76 1012.8
20200714001326 76 308 0.0 0.0 0.00 0.06 0.06 74 1012.7
20200714000330 76 308 0.0 0.0 0.00 0.06 0.06 72 1012.6
20200713235318 77 308 0.0 0.0 0.00 0.06 0.06 70 1012.6
20200713234319 78 308 0.0 0.0 0.00 0.06 0.06 69 1012.7
20200713233319 79 308 0.0 0.0 0.00 0.06 0.06 67 1012.6
20200713232317 80 308 0.0 0.0 0.00 0.06 0.06 64 1012.6
20200713231324 82 308 0.0 0.0 0.00 0.06 0.06 59 1012.5
20200713230325 82 308 0.0 2.0 0.00 0.06 0.06 55 1012.3
20200713225326 84 308 0.0 0.0 0.00 0.07 0.06 55 1012.2
20200713224319 85 308 0.0 2.0 0.00 0.07 0.06 52 1012.1
20200713223323 86 309 2.0 4.0 0.00 0.07 0.06 47 1012.0
20200713222329 87 309 0.0 2.0 0.00 0.07 0.06 47 1011.9
20200713221323 88 308 1.0 6.0 0.00 0.07 0.06 45 1011.8
20200713220312 88 312 0.0 5.0 0.00 0.07 0.06 45 1011.9
20200713215316 88 312 0.0 2.0 0.00 0.07 0.06 45 1012.0
20200713214324 88 312 0.0 3.0 0.00 0.07 0.06 44 1011.9
20200713213324 88 317 0.0 6.0 0.00 0.07 0.06 44 1012.0
20200713212325 89 319 1.0 5.0 0.00 0.07 0.06 43 1011.9
20200713211332 89 319 0.0 1.0 0.00 0.07 0.06 49 1011.9
20200713210331 88 319 0.0 1.0 0.00 0.07 0.06 49 1011.9
20200713205321 88 319 0.0 1.0 0.00 0.44 0.06 50 1012.1
20200713204320 87 319 0.0 3.0 0.00 0.44 0.06 48 1012.2
20200713203328 88 319 0.0 2.0 0.00 0.44 0.06 49 1012.2
20200713202326 87 319 0.0 2.0 0.00 0.44 0.06 48 1012.2
20200713201329 86 319 1.0 4.0 0.00 0.44 0.06 47 1012.3
20200713200317 86 320 0.0 5.0 0.00 0.44 0.06 47 1012.3
20200713195320 86 321 0.0 0.0 0.00 0.44 0.06 53 1012.3
20200713194316 86 321 0.0 4.0 0.00 0.44 0.06 49 1012.3
20200713193320 86 325 0.0 4.0 0.00 0.44 0.06 48 1012.5
20200713192320 85 325 0.0 3.0 0.00 0.44 0.06 47 1012.5
20200713191318 85 325 0.0 0.0 0.00 0.44 0.06 52 1012.5
20200713190322 85 325 0.0 6.0 0.00 0.44 0.06 49 1012.7
20200713185326 85 325 0.0 1.0 0.00 0.44 0.06 52 1012.6
20200713184329 84 325 0.0 0.0 0.00 0.44 0.06 54 1012.7